Back to catalog

STARLINK-34198

AliveCommunicationsVLEO
NORAD 64388·PAYLOAD·🇺🇸 United States

Launched Jun 13, 2025 from Cape Canaveral Space Force Station

Loading…

Next Passes (next 24 hours)

TLE

FreshSource: CelesTrak SupGP

Epoch: Sep 14, 2026, 23:02 UTC

1 64388C 25127U   26257.96020833 -.00039037  00000+0 -14141-2 0  2572
2 64388  43.0024 190.5227 0001363 266.3985 241.1161 15.27594714    14

Track STARLINK-34198 in real time with AllMySat

Download on the App Store